[[{"header":{"parameterUnit":"m.s-1","parameterCategory":1,"la1":30.2991,"la2":30.254,"lo1":-89.0895,"lo2":-89.0444,"dy":0.0017,"dx":0.0017,"nx":28,"ny":28,"refTime":"2023-10-09T21:00:00:Z","depth":0,"parameterNumber":2,"parameterNumberName":"U-component_of_WINDS"},"data":[0,0,0,0,0,0,0,0,0,0,0,0,0,0,0,0,0,0,0,0,0,0,0,0,0,0,0,0,0,0,0,0,0,0,0,0,0,0,0,0,0,0,0,0,0,0,0,0,0,0,0,0,0,0,0,0,0,0,1.4495,1.4496,0,1.4541,1.4541,1.4542,1.4548,1.4548,1.4548,1.4547,1.4593,1.4594,1.4596,0,0,0,0,0,0,0,0,0,0,0,0,0,1.4412,1.4413,1.4495,1.4496,1.4496,1.4541,1.4541,1.4542,1.4548,1.4548,1.4547,1.4547,1.4592,1.4594,1.4596,0,0,0,0,0,0,0,0,0,0,0,0,0,1.4452,1.4414,1.4495,1.4505,1.4506,1.4541,1.4541,1.4542,1.4549,1.4548,1.4547,1.4547,1.4592,1.4594,1.4596,1.4624,0,0,1.4604,1.4605,0,0,0,0,0,0,0,0,1.445,1.4455,1.4503,1.4504,1.4506,1.4538,1.4529,1.457,1.4549,1.4532,1.4547,1.4546,1.4575,1.4579,1.4589,1.4626,1.4628,1.4604,1.4605,1.4607,1.4607,0,0,0,0,0,0,0,1.4447,1.4453,1.4513,1.4504,1.4505,1.4506,1.4511,1.4537,1.4557,1.4534,1.4534,1.454,1.4576,1.4586,1.459,1.4629,1.4604,1.4606,1.4608,1.4609,1.4689,1.469,0,0,0,0,0,0,1.4442,1.4451,1.4512,1.4515,1.4476,1.4508,1.4514,1.4529,1.4556,1.456,1.454,1.454,1.4583,1.4587,1.4592,1.4625,1.4606,1.4609,1.461,1.4689,1.469,1.469,0,0,0,0,0,0,1.4441,1.4448,1.451,1.4483,1.4491,1.4511,1.4527,1.453,1.454,1.4561,1.4565,1.4548,1.4582,1.4588,1.4616,1.4626,1.461,1.4612,1.4688,1.4689,1.469,1.4692,0,0,0,0,0,0,1.4438,1.4447,1.4458,1.4483,1.4492,1.4534,1.4527,1.4531,1.4545,1.4545,1.4569,1.4573,1.4582,1.4612,1.4618,1.463,1.4614,1.4687,1.4688,1.469,1.4691,1.4693,1.4695,0,0,0,0,0,1.4435,1.4457,1.4459,1.4466,1.4507,1.4534,1.454,1.4551,1.4546,1.4556,1.457,1.4572,1.4624,1.4615,1.4622,1.4634,1.4686,1.4688,1.469,1.469,1.4693,1.4695,0,0,0,0,0,0,1.4433,1.446,1.4463,1.4493,1.4512,1.4536,1.455,1.4553,1.4573,1.4572,1.4584,1.459,1.4616,1.4628,1.4617,1.4661,1.4655,1.4658,1.4653,1.4655,1.4657,1.4654,1.4616,0,0,0,0,0,1.4436,1.4457,1.448,1.4504,1.4513,1.453,1.4542,1.4549,1.4568,1.4576,1.4592,1.461,1.463,1.4643,1.4664,1.4693,1.4698,1.4704,1.4706,1.4708,1.471,1.4725,1.4728,1.4696,1.4696,1.4696,0,0,1.4442,1.446,1.4472,1.4504,1.4519,1.454,1.4536,1.4559,1.4574,1.4579,1.4606,1.4618,1.4639,1.4667,1.468,1.4677,1.472,1.471,1.4711,1.4712,1.4727,1.473,1.4733,1.4697,1.4696,1.4696,0,0,1.4465,1.448,1.4502,1.4517,1.454,1.4551,1.4556,1.4579,1.4587,1.4614,1.4619,1.4637,1.4672,1.4687,1.4699,1.4725,1.4728,1.4731,1.4741,1.4755,1.4758,1.476,1.4769,1.4772,1.4734,1.4734,1.4734,0,1.447,1.4501,1.4513,1.4535,1.4548,1.4555,1.4576,1.459,1.4618,1.4627,1.4623,1.4667,1.4682,1.4713,1.4719,1.4729,1.4735,1.4729,1.4757,1.4759,1.4762,1.477,1.4773,1.4734,1.4734,1.4734,1.4734,0,1.4506,1.4528,1.4543,1.457,1.4585,1.4607,1.4621,1.4635,1.464,1.4651,1.4678,1.4695,1.4719,1.4726,1.4732,1.4758,1.4756,1.4754,1.4748,1.4765,1.4773,1.4776,1.4735,1.4734,1.4734,1.4734,0,0,1.4528,1.4561,1.4566,1.4578,1.4603,1.462,1.4641,1.4665,1.4676,1.4694,1.4712,1.4741,1.474,1.4754,1.4761,1.4774,1.4792,1.4771,1.4771,1.4774,1.4821,1.4822,1.4825,1.4794,1.4795,1.4795,1.4819,0,1.4553,1.4592,1.4603,1.4636,1.4656,1.4661,1.468,1.4697,1.4707,1.4725,1.4736,1.4757,1.4754,1.4762,1.4775,1.4787,1.4802,1.4786,1.481,1.4811,1.4804,1.483,1.4831,1.4852,1.4822,1.4823,1.4823,0,1.4587,1.4607,1.4642,1.4663,1.4672,1.4689,1.471,1.4727,1.4746,1.4753,1.4767,1.4773,1.4795,1.4787,1.4817,1.4805,1.4816,1.4823,1.4824,1.4827,1.4818,1.4832,1.4859,1.4862,1.4829,1.4828,1.4828,0,1.4599,1.4634,1.4659,1.4669,1.4696,1.4707,1.4718,1.4737,1.4749,1.4768,1.4776,1.4797,1.4808,1.4823,1.4834,1.4828,1.4862,1.4856,1.4868,1.4867,1.4875,1.4874,1.4903,1.4882,1.4882,1.4882,1.4882,0,1.4625,1.4646,1.4665,1.468,1.4703,1.4715,1.4738,1.4749,1.4765,1.4782,1.4788,1.4804,1.4817,1.4835,1.4843,1.4866,1.4871,1.4876,1.4878,1.4875,1.4875,1.4882,1.4881,1.4883,1.4883,1.4882,1.4882,0,1.4642,1.4656,1.4683,1.4706,1.4712,1.4728,1.4747,1.4762,1.4772,1.4794,1.4799,1.4815,1.4836,1.4848,1.4874,1.488,1.4904,1.4906,1.4898,1.4899,1.491,1.4908,1.4945,1.495,1.4925,1.4926,1.4926,0,1.4658,1.4674,1.4698,1.471,1.4722,1.4741,1.4755,1.4766,1.478,1.4802,1.4814,1.4835,1.4852,1.4884,1.4898,1.4917,1.4919,1.493,1.4922,1.4919,1.4918,1.4917,1.4918,1.4932,1.4932,1.4932,1.4932,0,1.4684,1.469,1.4709,1.473,1.4745,1.4763,1.4779,1.4789,1.4803,1.4818,1.4839,1.4852,1.4879,1.4899,1.492,1.493,1.4933,1.4935,1.4938,1.4936,1.493,1.4933,1.4901,1.4934,1.4934,1.4934,1.4934,1.4934,1.47,1.4715,1.4734,1.4755,1.4769,1.4784,1.4799,1.4811,1.4829,1.4852,1.4858,1.488,1.4897,1.4925,1.4936,1.4953,1.4951,1.4956,1.4958,1.4959,1.4958,1.4928,1.4957,1.4956,1.4956,1.4956,1.4956,0,1.4726,1.4739,1.4758,1.4781,1.4797,1.4799,1.4818,1.4831,1.485,1.4867,1.4883,1.4907,1.4927,1.4942,1.4961,1.4972,1.4974,1.4977,1.4976,1.4978,1.4959,1.4954,1.4975,1.4975,1.4975,1.4975,1.4975,1.4975,1.4741,1.4766,1.4774,1.4804,1.4817,1.4839,1.4849,1.4863,1.4876,1.4902,1.4919,1.4928,1.4944,1.4965,1.4982,1.4986,1.4993,1.4995,1.4999,1.4981,1.4979,1.4977,1.4972,1.4997,1.4997,1.5016,1.5016,1.5016]},{"header":{"parameterUnit":"m.s-1","parameterCategory":1,"la1":30.2991,"la2":30.254,"lo1":-89.0895,"lo2":-89.0444,"dy":0.0017,"dx":0.0017,"nx":28,"ny":28,"refTime":"2023-10-09T21:00:00:Z","depth":0,"parameterNumber":3,"parameterNumberName":"V-component_of_WINDS"},"data":[0,0,0,0,0,0,0,0,0,0,0,0,0,0,0,0,0,0,0,0,0,0,0,0,0,0,0,0,0,0,0,0,0,0,0,0,0,0,0,0,0,0,0,0,0,0,0,0,0,0,0,0,0,0,0,0,0,0,3.3694,3.3693,0,3.3633,3.3633,3.3632,3.3629,3.363,3.363,3.3631,3.3561,3.3558,3.3556,0,0,0,0,0,0,0,0,0,0,0,0,0,3.3799,3.3798,3.3694,3.3693,3.3693,3.3634,3.3633,3.3632,3.3629,3.363,3.363,3.3631,3.3562,3.3559,3.3556,0,0,0,0,0,0,0,0,0,0,0,0,0,3.3748,3.3797,3.3694,3.3684,3.3683,3.3634,3.3633,3.3632,3.3628,3.363,3.3631,3.3632,3.3563,3.3559,3.3555,3.351,0,0,3.3543,3.3542,0,0,0,0,0,0,0,0,3.375,3.3744,3.3686,3.3685,3.3683,3.364,3.3644,3.359,3.3628,3.3649,3.3631,3.3632,3.3586,3.358,3.3566,3.3507,3.3503,3.3543,3.3541,3.3539,3.3538,0,0,0,0,0,0,0,3.3754,3.3746,3.367,3.3685,3.3683,3.368,3.3674,3.3634,3.3612,3.3647,3.3647,3.364,3.3585,3.357,3.3564,3.3502,3.3543,3.354,3.3538,3.3536,3.3401,3.34,0,0,0,0,0,0,3.3761,3.3749,3.3672,3.3668,3.372,3.3677,3.367,3.3652,3.3612,3.3607,3.3639,3.364,3.3576,3.3569,3.3562,3.3505,3.3539,3.3536,3.3533,3.3402,3.3401,3.3399,0,0,0,0,0,0,3.3763,3.3754,3.3674,3.3709,3.3698,3.3674,3.3654,3.3651,3.3636,3.3606,3.3601,3.3628,3.3576,3.3567,3.3523,3.3503,3.3534,3.353,3.3404,3.3402,3.34,3.3392,0,0,0,0,0,0,3.3766,3.3755,3.3739,3.3708,3.3696,3.3639,3.3653,3.3649,3.363,3.3631,3.3595,3.359,3.3576,3.3529,3.3519,3.3498,3.3527,3.3406,3.3403,3.3401,3.3394,3.339,3.3387,0,0,0,0,0,3.377,3.3738,3.3738,3.3729,3.3677,3.3638,3.3631,3.3618,3.3629,3.3611,3.3592,3.3591,3.3507,3.3524,3.3514,3.3491,3.3407,3.3404,3.3401,3.3396,3.3391,3.3387,0,0,0,0,0,0,3.3764,3.3734,3.3734,3.3691,3.3668,3.3637,3.3615,3.3614,3.3584,3.3586,3.3569,3.3561,3.3517,3.35,3.352,3.3444,3.3458,3.3452,3.3457,3.3453,3.3449,3.3453,3.3524,0,0,0,0,0,3.3758,3.3732,3.3705,3.367,3.3659,3.3639,3.3621,3.3614,3.3588,3.3577,3.3555,3.3527,3.3494,3.3472,3.3441,3.3392,3.3383,3.3371,3.3367,3.3364,3.336,3.3331,3.3325,3.339,3.339,3.339,0,0,3.3745,3.3725,3.3709,3.3669,3.3649,3.3619,3.363,3.3598,3.3575,3.3571,3.3529,3.3511,3.3479,3.3432,3.341,3.3416,3.334,3.3361,3.3359,3.3355,3.3327,3.3321,3.3316,3.3388,3.3388,3.3388,0,0,3.3706,3.3689,3.3658,3.3638,3.361,3.3597,3.359,3.356,3.3549,3.3507,3.3503,3.3474,3.3418,3.3395,3.3376,3.3328,3.3325,3.3318,3.3298,3.3271,3.3265,3.3261,3.3242,3.3236,3.3313,3.3313,3.3313,0,3.3692,3.365,3.3641,3.3609,3.3591,3.3589,3.3555,3.3536,3.3497,3.3483,3.3491,3.3421,3.3399,3.3346,3.3335,3.332,3.3309,3.3321,3.3268,3.3263,3.3258,3.324,3.3233,3.3312,3.3313,3.3313,3.3313,0,3.3634,3.3604,3.3582,3.3548,3.3527,3.3494,3.3478,3.3458,3.3452,3.3438,3.3394,3.3367,3.333,3.3317,3.331,3.3263,3.3267,3.3272,3.3284,3.3251,3.3234,3.3227,3.3311,3.3312,3.3312,3.3312,0,0,3.3588,3.355,3.3542,3.3526,3.3495,3.347,3.3437,3.3403,3.3385,3.3358,3.3328,3.3282,3.3286,3.3264,3.3254,3.3231,3.3193,3.3237,3.3236,3.3229,3.3136,3.3133,3.3125,3.3191,3.319,3.3189,3.3139,0,3.3544,3.3488,3.3479,3.3428,3.34,3.3397,3.3368,3.3344,3.333,3.3301,3.3284,3.3251,3.3259,3.3246,3.3223,3.3202,3.3174,3.3206,3.316,3.3159,3.3168,3.3116,3.3112,3.3067,3.3132,3.3131,3.313,0,3.3486,3.3461,3.3408,3.338,3.3368,3.3342,3.331,3.3284,3.3256,3.3247,3.3223,3.3217,3.3179,3.3195,3.3142,3.3164,3.3145,3.3132,3.313,3.3124,3.3142,3.3108,3.3052,3.3044,3.312,3.3121,3.3121,0,3.3456,3.3409,3.3371,3.3358,3.3325,3.3306,3.3291,3.3264,3.3244,3.3215,3.3202,3.3168,3.3149,3.3121,3.3105,3.3118,3.3052,3.3067,3.3041,3.3042,3.3026,3.3027,3.2965,3.3016,3.3016,3.3017,3.3017,0,3.3408,3.3375,3.3357,3.3334,3.3297,3.3286,3.3248,3.3233,3.3209,3.3181,3.3176,3.3148,3.3129,3.3098,3.3085,3.3042,3.3034,3.3023,3.302,3.3023,3.3024,3.3009,3.3011,3.3015,3.3015,3.3016,3.3016,0,3.3368,3.3355,3.3313,3.3286,3.3279,3.3252,3.3228,3.3203,3.319,3.3154,3.3144,3.3121,3.3085,3.3067,3.302,3.3011,3.2962,3.2962,3.2973,3.2971,3.2946,3.2948,3.2871,3.286,3.292,3.2919,3.2919,0,3.3337,3.3312,3.3283,3.3266,3.3251,3.3221,3.3202,3.3189,3.3168,3.3135,3.3114,3.3078,3.3049,3.299,3.2967,3.2932,3.2929,3.2904,3.2923,3.2927,3.2927,3.2928,3.2925,3.29,3.29,3.2899,3.2899,0,3.3283,3.3279,3.3252,3.3223,3.32,3.3176,3.3152,3.3136,3.312,3.3096,3.306,3.3038,3.2992,3.2955,3.2918,3.2899,3.2895,3.2894,3.2886,3.2888,3.2895,3.2889,3.2962,3.2895,3.2895,3.2896,3.2896,3.2896,3.3246,3.3224,3.32,3.317,3.3152,3.3129,3.3105,3.3089,3.306,3.3024,3.3018,3.2979,3.295,3.2901,3.2881,3.2848,3.2853,3.2842,3.2839,3.2836,3.2834,3.2902,3.2842,3.2842,3.2842,3.2842,3.2842,0,3.3191,3.3176,3.3149,3.3117,3.3093,3.3095,3.3068,3.3047,3.3014,3.2989,3.2961,3.2919,3.2884,3.2859,3.2822,3.2801,3.2798,3.2792,3.2792,3.2788,3.2832,3.2843,3.2795,3.2795,3.2795,3.2795,3.2795,3.2795,3.316,3.3122,3.3114,3.3066,3.3051,3.3016,3.3,3.2978,3.2958,3.2913,3.2885,3.287,3.2844,3.2805,3.2772,3.2765,3.2751,3.2745,3.2737,3.278,3.2785,3.2789,3.2799,3.2742,3.2742,3.2695,3.2695,3.2694]}]]